Location: Clarks Summit,Pa.
(41.5000°N, 75.6000°W)
Time: 03:01:05
(UTC-05:00)

Envisat - Pass Details

Date: 05 December 2021
Orbit: 764 x 766 km, 98.2° (Epoch: 18 January)

Event Time Altitude Azimuth Distance (km) Brightness Sun altitude
Rises 04:55:56 0° 14° (NNE) 3,241 6.3 -25.1°
Reaches altitude 10° 04:58:16 10° 17° (NNE) 2,311 5.6 -24.6°
Maximum altitude 05:03:21 74° 102° (ESE) 800 3.1 -23.7°
Drops below altitude 10° 05:08:24 10° 188° (S) 2,293 5.5 -22.8°
Sets 05:10:42 0° 190° (S) 3,214 6.2 -22.3°
